Wetbulb
64.86 65.00 65.09 65.83 65.55 65.83 66.11 66.02 66.76 68.75 67.62 67.05 66.50 67.56 67.65 68.49 68.59 68.89 70.34 70.19 69.74 69.18 69.32 68.14 67.91 67.61 66.30 65.86 65.39 64.85 62.95 60.47 59.66 56.66 55.28 55.14 55.78 55.54 54.65 53.89 52.29 50.93 50.73
64.60 64.57 65.05 64.83 65.25 65.49 66.54 66.36 66.61 67.43 67.93 67.46 67.54 68.53 68.46 68.81 68.75 69.54 69.37 69.43 68.76 68.43 68.15 67.42 66.56 66.08 64.98 64.17 64.08 62.96 61.12 59.28 58.67 55.18 53.95 50.30 51.51 52.77 52.96 52.21 50.82 50.45 49.90
63.36 64.07 64.13 64.20 64.87 65.22 66.59 66.31 67.22 67.56 67.83 68.43 68.22 68.41 69.55 68.68 67.77 68.23 67.46 67.76 67.37 66.89 66.51 66.17 65.50 64.62 64.17 62.30 62.19 62.59 61.04 57.25 57.44 59.05 55.53 52.19 50.86 50.20 51.25 50.62 49.90 49.89 49.16
64.95 64.47 64.24 64.12 64.43 65.30 67.25 66.86 67.58 68.13 68.72 69.27 68.05 67.27 66.80 65.38 67.30 67.01 67.08 66.35 66.03 65.28 64.70 64.74 64.13 63.63 62.65 62.34 62.19 61.66 61.18 59.09 55.49 57.19 57.29 59.24 56.32 50.76 47.01 49.58 49.11 49.14 48.51
65.03 65.01 64.89 64.96 64.91 66.30 66.64 67.14 68.48 67.93 68.59 68.90 69.19 68.37 66.85 67.12 67.65 67.14 66.42 65.27 64.50 64.17 63.47 63.20 63.00 62.62 61.67 62.08 61.90 61.01 60.20 58.40 56.98 56.14 55.91 56.95 56.30 57.17 53.18 46.99 46.50 47.91 48.24
64.94 65.87 67.05 66.86 66.44 66.87 67.61 68.24 67.88 67.83 68.61 68.30 68.28 67.72 66.79 67.72 67.16 65.78 64.63 64.03 63.24 62.76 62.11 61.61 61.57 61.52 60.60 60.09 59.68 59.67 59.56 58.62 58.28 57.33 56.94 55.47 54.42 53.94 52.88 51.09 48.12 46.39 46.90
64.39 64.63 64.80 65.59 65.56 67.00 67.54 67.65 67.40 66.38 66.96 67.26 66.97 66.89 67.25 69.16 67.62 65.64 64.47 64.00 62.67 61.60 60.92 60.43 59.52 59.49 59.18 58.68 58.52 58.65 58.47 58.13 57.38 57.81 56.16 55.93 55.28 54.65 54.61 51.65 48.66 46.77 47.39
64.08 64.83 64.95 66.16 66.89 67.43 67.31 67.39 65.32 65.28 66.30 66.47 66.64 67.16 67.96 67.85 67.79 66.03 64.95 64.10 62.83 60.71 59.64 58.64 58.29 58.13 57.26 57.18 57.16 57.13 57.62 58.11 57.49 57.55 56.84 55.10 54.34 53.80 53.49 51.10 48.73 46.14 45.61
60.11 62.50 64.09 65.30 67.00 66.80 67.60 67.23 65.52 66.72 66.56 66.78 67.53 67.39 67.49 66.84 65.98 65.74 65.36 63.22 61.02 58.65 57.00 57.21 56.82 55.30 55.31 55.21 55.49 54.92 55.83 56.43 56.82 56.08 54.88 52.98 51.98 52.24 51.95 51.80 50.94 48.12 43.52
55.01 58.09 60.59 62.97 64.48 66.47 67.72 66.08 64.54 63.87 65.48 66.08 65.38 64.74 64.83 62.82 60.83 59.89 57.05 56.03 54.52 54.98 54.87 53.34 53.85 52.72 53.00 53.71 54.11 53.21 53.49 53.79 53.40 52.33 51.30 50.38 50.18 50.58 50.99 51.33 50.67 49.70 48.48
53.54 57.98 58.23 60.72 63.35 63.97 64.40 65.06 63.37 62.37 62.32 61.59 61.52 61.74 60.25 59.63 57.88 57.15 57.22 56.05 54.19 53.76 52.37 51.69 50.84 51.44 50.91 51.47 52.33 52.08 51.08 50.41 50.04 50.22 49.35 48.90 49.54 48.77 48.82 49.11 48.59 47.96 48.40
51.22 53.57 55.89 55.73 54.35 55.28 60.03 61.01 61.88 62.41 61.43 61.12 59.74 58.79 57.62 56.56 55.51 55.55 55.57 53.04 52.19 52.24 50.99 50.85 50.30 49.58 49.82 50.48 50.36 49.21 49.03 48.17 47.71 48.13 48.26 47.46 47.40 48.19 48.59 47.78 47.55 47.31 48.08
50.41 51.24 52.29 52.48 51.74 53.08 54.22 57.04 58.07 58.66 59.34 59.38 58.17 57.32 56.09 55.28 54.32 53.48 52.76 52.83 51.96 51.37 50.96 49.69 48.87 49.50 49.28 48.98 49.27 48.33 48.12 48.13 48.09 47.64 47.61 46.93 47.40 46.97 47.04 46.72 46.03 45.63 45.43
48.12 49.71 50.28 50.88 51.63 52.04 53.69 54.55 55.87 56.17 56.03 55.83 55.63 55.15 54.37 54.52 54.19 52.60 52.39 52.06 51.81 50.80 49.26 48.24 47.48 48.33 48.70 48.34 47.89 47.43 48.10 48.02 47.46 48.82 47.49 47.04 47.01 46.74 46.45 45.64 45.28 44.77 44.17
45.95 47.20 48.14 49.33 50.51 51.18 52.00 52.34 55.64 55.34 55.82 54.72 53.58 52.81 52.97 52.85 52.53 52.34 51.01 51.67 51.35 51.28 50.41 48.24 47.47 46.86 47.28 47.17 47.76 46.68 47.33 46.96 46.89 47.41 46.62 47.39 42.13 37.37 39.04 44.93 44.72 44.93 43.76
43.31 45.14 46.56 47.69 48.56 49.80 51.78 53.40 52.82 54.84 55.12 54.65 53.80 52.86 51.00 50.09 50.75 50.72 51.06 50.62 50.39 49.92 49.17 47.24 47.54 46.42 46.43 40.88 40.45 44.94 47.01 46.34 46.12 45.37 45.63 43.03 39.73 36.23 34.79 35.06 33.12 35.88 44.00
41.74 42.87 44.00 45.68 47.58 49.20 51.81 52.81 53.34 53.00 55.34 53.28 53.42 51.91 50.76 49.51 48.34 49.38 48.81 47.89 48.64 49.36 48.22 48.21 47.11 47.21 47.83 39.39 39.37 39.50 46.55 45.51 45.56 45.23 44.35 41.64 41.39 39.00 39.20 32.63 32.54 31.84 32.92
41.56 42.28 43.35 44.60 45.85 48.75 50.60 52.98 54.10 53.94 54.13 54.53 52.54 51.85 50.69 48.57 47.62 46.99 46.74 47.35 47.49 47.38 47.89 47.86 48.49 48.73 47.64 38.40 38.58 37.88 46.82 46.52 45.40 45.11 44.39 42.58 39.77 40.52 38.91 37.69 38.22 37.59 37.78
42.03 42.58 43.48 44.03 45.10 45.72 49.43 50.56 51.08 51.74 52.27 51.65 52.20 51.17 50.45 48.51 46.51 45.82 46.58 47.53 46.92 46.46 46.68 48.03 47.81 48.93 43.87 37.78 37.57 39.54 45.85 44.33 44.33 44.51 44.72 43.57 41.42 37.20 38.06 40.14 39.40 38.86 37.45
41.63 42.16 43.14 43.79 43.48 44.11 46.26 48.33 48.50 48.80 48.74 50.54 51.01 51.31 50.66 49.49 47.56 46.14 45.82 46.28 46.74 46.93 47.95 47.88 49.67 46.70 44.47 37.09 37.50 39.26 45.15 44.01 43.06 43.86 44.28 37.39 41.22 34.84 34.51 40.76 39.69 37.50 37.70
40.53 41.44 42.17 42.39 42.90 43.49 43.87 44.01 46.37 46.06 47.88 49.80 50.93 52.24 51.78 50.27 49.20 46.59 45.84 45.84 46.07 47.01 46.96 46.87 49.85 49.67 47.16 41.09 37.42 37.35 45.21 44.23 43.11 41.88 42.44 41.81 34.28 34.82 34.51 34.61 41.05 39.63 38.13
40.59 41.01 41.09 41.48 42.78 43.09 42.70 42.20 42.37 44.37 46.86 48.66 49.68 50.77 52.15 50.52 49.32 47.55 45.17 44.14 44.17 44.30 45.03 46.70 47.81 50.33 48.69 39.29 36.73 36.80 36.37 40.11 43.66 41.68 42.84 42.04 33.95 34.14 33.79 33.13 31.93 32.50 34.16
39.85 40.87 40.64 40.59 41.71 42.75 42.50 41.28 42.09 43.09 43.44 45.84 48.05 49.91 51.29 51.34 49.89 47.94 44.57 42.93 43.26 42.98 43.50 43.95 44.97 43.38 45.01 42.16 36.29 35.94 35.57 35.57 43.10 45.28 41.56 35.22 33.65 33.44 32.05 32.28 30.54 28.80 36.57
38.64 39.36 39.58 39.65 40.37 41.62 42.00 42.46 42.58 42.76 42.74 42.79 44.97 48.01 49.33 47.52 49.37 47.52 46.55 43.61 41.98 42.47 42.87 42.42 41.08 42.26 43.71 42.97 39.65 38.78 39.26 34.45 38.21 35.67 37.99 35.15 33.61 32.87 33.88 30.20 30.20 33.91 35.80
38.49 38.91 38.68 38.85 39.42 40.78 41.32 42.12 42.47 42.52 41.53 42.48 42.77 43.97 47.04 46.93 48.00 47.40 46.13 44.97 44.97 43.12 42.42 41.63 41.86 41.38 40.94 42.34 40.95 39.97 42.35 43.54 41.47 41.44 39.29 36.18 35.16 32.60 32.89 32.88 32.79 34.18 36.65
38.34 38.15 38.55 38.88 39.33 40.23 40.61 41.52 42.08 42.20 41.55 41.18 42.30 42.72 44.01 44.74 44.91 45.75 46.89 39.97 38.80 37.58 38.32 39.18 41.12 42.82 40.08 38.00 38.04 37.80 37.64 37.63 34.23 40.60 38.76 36.82 35.50 32.05 32.70 34.56 34.44 35.07 34.56
MSLP
1002.14 1003.54 1004.77 1005.40 1006.00 1006.71 1007.93 1009.08 1010.07 1010.90 1011.52 1011.81 1011.88 1012.19 1012.64 1012.92 1013.51 1013.76 1014.27 1015.23 1015.40 1015.95 1016.13 1016.34 1016.99 1017.04 1017.15 1017.56 1018.26 1018.83 1019.36 1019.87 1020.49 1021.14 1021.75 1022.37 1022.61 1022.66 1022.93 1023.24 1023.69 1024.34 1024.73
1001.14 1002.53 1004.00 1004.86 1005.58 1006.34 1007.62 1008.58 1009.54 1010.55 1011.06 1011.23 1011.45 1011.73 1012.27 1012.81 1013.40 1013.67 1014.73 1015.20 1015.63 1016.06 1016.26 1016.41 1016.96 1017.25 1017.44 1018.14 1018.69 1019.15 1019.37 1019.88 1020.56 1020.47 1021.11 1021.83 1022.82 1023.10 1023.25 1023.69 1024.09 1024.38 1024.41
1001.02 1001.83 1003.14 1004.39 1005.35 1005.89 1007.10 1008.03 1008.80 1009.90 1010.63 1010.71 1011.20 1011.64 1012.25 1012.86 1013.42 1013.89 1014.88 1015.29 1015.88 1016.17 1016.41 1016.77 1016.96 1017.60 1017.84 1018.42 1018.91 1019.03 1019.31 1019.70 1020.35 1020.13 1019.85 1020.06 1020.23 1022.33 1023.52 1023.88 1024.08 1024.58 1024.60
1000.54 1001.72 1002.62 1003.73 1004.69 1005.45 1006.78 1007.66 1008.27 1009.24 1010.21 1010.55 1010.86 1011.43 1011.86 1012.49 1012.95 1013.77 1014.57 1015.20 1015.89 1016.20 1016.62 1016.96 1017.23 1017.73 1017.92 1018.16 1018.77 1018.99 1019.16 1019.39 1019.84 1020.40 1020.08 1020.36 1020.03 1020.72 1022.21 1023.50 1024.29 1024.56 1024.74
999.24 1000.91 1002.05 1003.17 1004.20 1005.30 1006.09 1007.19 1007.64 1008.28 1009.73 1010.20 1010.47 1011.06 1011.76 1012.17 1012.84 1013.56 1014.25 1015.15 1016.00 1016.30 1016.76 1017.12 1017.49 1017.76 1017.85 1018.06 1018.53 1018.88 1019.18 1019.37 1019.40 1019.85 1020.24 1020.40 1020.39 1020.37 1020.40 1021.96 1023.63 1024.15 1024.53
998.44 999.93 1001.37 1002.80 1003.84 1004.92 1006.02 1007.23 1007.11 1007.56 1009.08 1009.98 1010.30 1011.14 1011.58 1011.58 1011.90 1013.27 1014.12 1015.07 1015.84 1016.44 1016.82 1017.20 1017.57 1017.83 1017.90 1018.30 1018.58 1019.00 1019.31 1019.22 1019.42 1019.51 1019.77 1019.89 1019.95 1020.13 1020.40 1020.72 1022.34 1023.19 1024.13
998.33 999.33 1000.42 1001.99 1003.24 1004.30 1005.52 1006.55 1007.23 1008.10 1009.01 1009.73 1010.19 1011.08 1011.62 1011.49 1011.90 1012.90 1013.85 1014.68 1015.36 1016.18 1016.91 1017.28 1017.66 1017.92 1018.15 1018.47 1018.72 1019.16 1019.35 1019.48 1019.49 1019.67 1019.86 1019.89 1019.81 1020.03 1020.30 1020.57 1021.76 1022.45 1023.54
998.50 999.73 1000.93 1001.50 1002.96 1004.16 1005.25 1006.58 1007.38 1008.45 1009.90 1009.80 1009.89 1010.37 1011.47 1011.50 1011.94 1012.87 1013.68 1014.69 1015.36 1016.33 1017.07 1017.52 1017.82 1017.81 1018.29 1018.65 1019.07 1019.25 1019.40 1019.54 1019.77 1020.00 1020.12 1020.32 1020.39 1020.66 1020.55 1020.65 1021.36 1021.92 1023.01
1000.61 1000.38 1001.41 1001.94 1002.48 1003.81 1004.85 1006.25 1007.14 1007.57 1008.72 1009.30 1009.84 1010.08 1011.11 1011.67 1012.04 1013.07 1014.02 1014.88 1016.04 1016.63 1017.09 1017.50 1018.07 1018.55 1018.24 1018.72 1019.36 1019.38 1019.51 1019.80 1020.07 1020.36 1020.71 1020.69 1020.83 1020.82 1020.82 1020.83 1021.26 1021.47 1021.77
1002.39 1002.58 1002.83 1003.11 1003.46 1003.71 1004.47 1006.22 1007.41 1008.12 1008.71 1009.14 1009.78 1010.29 1010.74 1011.72 1012.51 1013.85 1014.91 1015.33 1016.46 1016.76 1017.08 1017.38 1018.18 1019.07 1018.87 1019.33 1019.60 1019.71 1020.04 1020.13 1020.39 1020.62 1020.80 1021.02 1021.06 1021.15 1021.28 1021.32 1021.39 1021.55 1021.25
1003.70 1003.76 1004.40 1003.65 1004.15 1004.62 1005.41 1006.27 1007.08 1008.11 1008.78 1009.37 1009.98 1010.56 1011.29 1011.96 1012.65 1013.45 1014.67 1015.81 1016.45 1017.09 1017.49 1018.02 1017.71 1018.59 1019.26 1019.31 1020.47 1019.95 1020.10 1020.51 1020.65 1020.85 1020.90 1021.17 1021.28 1021.29 1021.75 1021.86 1021.96 1021.94 1021.59
1005.12 1005.17 1005.58 1006.26 1006.61 1006.73 1006.76 1007.19 1007.29 1008.18 1009.02 1009.39 1009.56 1011.11 1011.58 1012.12 1012.93 1013.97 1015.07 1015.66 1016.32 1017.00 1017.66 1018.14 1018.60 1019.32 1018.64 1019.24 1020.37 1020.47 1020.22 1020.77 1020.87 1021.02 1021.27 1021.61 1021.59 1021.84 1022.05 1022.15 1022.38 1022.56 1022.35
1005.97 1006.05 1006.21 1006.68 1007.32 1007.70 1007.90 1008.21 1008.38 1008.86 1009.42 1009.01 1010.24 1011.43 1011.66 1012.34 1013.11 1013.93 1014.96 1015.61 1016.08 1016.69 1017.41 1017.74 1018.71 1019.22 1019.66 1019.75 1020.32 1020.44 1020.54 1020.80 1020.89 1021.01 1021.31 1021.84 1022.15 1022.36 1022.65 1022.64 1022.86 1023.19 1023.27
1006.84 1007.02 1007.26 1007.55 1007.75 1007.82 1008.09 1008.90 1009.25 1009.63 1009.87 1010.46 1010.90 1011.49 1011.91 1012.52 1013.24 1014.28 1014.61 1015.37 1015.74 1016.16 1017.35 1017.96 1018.08 1019.50 1020.13 1020.12 1020.43 1020.39 1020.73 1020.94 1021.05 1021.09 1021.44 1021.98 1022.45 1022.85 1023.49 1023.19 1023.41 1023.62 1023.84
1007.82 1007.97 1008.08 1008.25 1008.51 1008.79 1008.89 1009.10 1009.38 1009.86 1010.42 1011.04 1011.66 1012.01 1012.50 1013.06 1013.67 1014.27 1014.60 1015.14 1015.60 1016.16 1016.87 1017.50 1016.02 1017.49 1019.20 1019.84 1020.12 1020.43 1020.98 1021.07 1021.32 1021.53 1021.94 1022.40 1023.44 1023.84 1024.49 1023.83 1024.01 1024.32 1024.22
1008.62 1008.69 1008.82 1008.93 1008.97 1008.99 1008.76 1008.54 1008.87 1009.23 1010.24 1011.08 1011.58 1012.06 1012.67 1013.09 1013.50 1014.16 1014.63 1015.12 1015.50 1016.19 1017.01 1017.64 1017.81 1018.39 1019.32 1019.16 1020.19 1020.65 1021.06 1021.24 1021.50 1021.80 1022.27 1023.28 1024.02 1024.66 1024.98 1024.71 1025.35 1025.51 1024.85
1009.25 1009.33 1009.29 1009.32 1009.26 1009.04 1008.80 1008.55 1008.61 1009.14 1009.27 1010.33 1011.04 1011.86 1012.51 1013.01 1013.52 1013.95 1014.63 1015.17 1015.43 1015.96 1016.45 1017.09 1017.35 1018.03 1018.21 1018.94 1019.82 1020.37 1020.67 1021.16 1021.50 1021.89 1022.29 1023.19 1023.60 1024.40 1024.60 1025.58 1025.50 1026.14 1026.19
1009.99 1010.11 1010.13 1010.01 1010.02 1009.76 1009.40 1009.15 1008.86 1009.10 1009.33 1009.60 1010.82 1011.59 1012.31 1013.01 1013.53 1014.03 1014.47 1014.98 1015.45 1015.73 1015.83 1016.43 1017.08 1017.54 1018.14 1018.87 1019.69 1020.41 1020.12 1021.07 1021.44 1021.71 1022.37 1022.65 1023.55 1023.90 1024.64 1025.30 1025.26 1025.65 1025.91
1010.93 1010.95 1010.86 1010.77 1010.82 1010.81 1010.31 1009.94 1009.86 1010.02 1010.05 1010.29 1010.53 1011.51 1012.17 1013.03 1013.69 1014.13 1014.43 1014.82 1015.22 1015.52 1015.63 1016.00 1016.55 1017.04 1018.11 1019.00 1019.51 1019.89 1020.19 1020.66 1021.22 1021.18 1021.78 1022.47 1023.37 1023.80 1024.29 1024.40 1024.67 1025.49 1026.18
1011.64 1011.56 1011.45 1011.27 1011.34 1011.51 1011.21 1010.75 1010.90 1010.85 1010.77 1010.86 1011.06 1011.24 1012.15 1012.80 1013.60 1014.19 1014.54 1014.88 1015.15 1015.37 1015.64 1015.77 1016.30 1016.89 1018.09 1018.99 1019.59 1019.97 1020.04 1020.39 1020.93 1021.45 1021.90 1023.02 1023.00 1023.98 1024.58 1024.31 1024.54 1024.96 1025.49
1011.96 1011.94 1011.69 1011.68 1011.83 1011.84 1011.72 1011.34 1011.21 1011.28 1011.32 1011.19 1010.98 1011.07 1011.49 1012.36 1013.13 1014.11 1014.61 1014.97 1015.19 1015.35 1015.41 1015.80 1015.93 1016.59 1017.43 1018.51 1019.06 1019.78 1019.75 1019.90 1020.65 1021.00 1021.96 1022.81 1023.42 1024.04 1024.58 1024.66 1024.78 1024.55 1025.20
1011.94 1011.98 1011.88 1011.82 1011.99 1012.02 1011.86 1011.62 1011.64 1011.80 1011.75 1011.45 1011.17 1010.95 1011.08 1011.89 1012.67 1013.64 1014.62 1015.02 1015.31 1015.39 1015.42 1015.43 1015.49 1015.82 1016.66 1017.82 1018.91 1019.64 1019.73 1019.69 1020.12 1021.02 1021.80 1022.54 1023.54 1024.10 1024.59 1024.85 1025.16 1025.21 1025.34
1011.87 1011.76 1011.76 1011.94 1012.12 1012.01 1011.86 1011.84 1012.07 1012.23 1012.18 1011.93 1011.58 1011.41 1011.19 1011.31 1012.11 1013.08 1014.10 1014.93 1015.30 1015.50 1015.56 1015.64 1015.82 1016.33 1016.78 1017.73 1018.40 1019.08 1019.22 1019.72 1019.98 1020.59 1021.45 1022.47 1023.37 1024.12 1024.83 1024.96 1025.22 1025.71 1025.39
1011.90 1011.89 1011.95 1011.97 1011.91 1011.95 1012.00 1011.94 1011.98 1012.15 1012.23 1012.23 1012.08 1011.95 1011.76 1011.92 1011.95 1012.77 1013.51 1014.24 1014.93 1015.38 1015.51 1015.84 1016.04 1016.30 1016.69 1017.25 1018.19 1018.88 1019.42 1019.85 1020.19 1020.45 1021.23 1022.45 1023.29 1023.84 1024.26 1025.04 1025.42 1024.95 1024.98
1012.14 1012.21 1012.15 1012.08 1011.94 1011.90 1011.84 1011.91 1011.89 1011.87 1012.06 1012.18 1012.12 1012.03 1012.07 1012.29 1012.40 1012.68 1013.06 1013.57 1014.07 1014.49 1015.06 1015.51 1015.78 1015.76 1015.96 1016.34 1017.03 1017.91 1018.57 1018.91 1019.39 1020.39 1021.42 1022.39 1023.01 1023.69 1023.97 1024.28 1024.47 1024.59 1024.38
1011.96 1012.13 1012.13 1012.06 1011.94 1011.91 1011.79 1011.72 1011.81 1011.88 1011.98 1012.00 1012.12 1011.99 1012.32 1012.52 1012.88 1012.84 1012.90 1013.27 1013.61 1014.03 1014.35 1014.80 1015.32 1015.57 1015.69 1015.97 1016.43 1017.14 1017.72 1018.43 1018.85 1019.46 1020.28 1021.10 1021.76 1022.30 1022.66 1022.80 1023.24 1023.44 1023.49
Wind_Speed
23 23 21 20 20 20 20 21 18 16 14 12 11 10 10 9 8 8 9 9 8 7 6 6 6 5 4 5 6 6 8 7 7 7 7 6 5 4 5 4 5 6 6
21 24 23 22 21 20 19 20 20 18 15 12 11 10 10 9 9 7 8 9 8 8 7 6 6 6 5 6 7 6 7 7 9 8 7 6 6 5 4 4 4 3 4
20 21 23 22 18 17 19 20 19 20 18 16 11 10 8 7 8 8 8 8 8 8 7 7 6 6 4 5 8 9 9 8 9 7 4 5 3 8 5 4 4 3 3
22 22 21 23 22 20 18 18 20 19 18 16 13 16 11 11 9 9 8 8 9 8 7 7 6 7 6 8 8 8 8 7 8 6 5 4 6 4 5 5 4 4 5
23 24 24 24 22 19 18 19 20 20 16 15 13 12 13 10 9 9 11 9 8 8 8 8 7 7 6 7 8 8 9 8 7 6 6 6 4 3 3 8 6 5 4
21 23 23 22 22 21 18 18 17 20 19 18 12 13 16 14 11 11 10 9 8 7 8 8 7 7 6 6 7 7 9 7 7 7 7 7 6 6 4 2 8 7 6
17 18 19 17 16 18 20 17 17 17 16 13 13 12 14 12 10 12 10 11 9 8 8 8 7 6 6 6 6 8 8 8 7 7 6 5 3 2 3 3 7 7 7
15 13 5 17 18 21 19 16 13 14 16 16 16 14 11 8 9 11 10 9 8 7 9 8 7 8 7 6 6 6 6 7 7 8 5 4 4 4 4 5 7 7 6
6 8 9 12 14 15 20 17 13 17 18 18 15 14 10 5 5 6 6 7 8 8 11 7 5 6 8 7 6 5 7 7 7 6 5 4 3 3 4 4 6 6 6
5 3 4 2 8 12 14 13 11 10 8 8 10 9 10 10 11 9 9 10 7 7 10 9 7 6 6 5 5 6 6 7 6 6 8 5 4 4 3 3 4 3 4
8 8 10 5 7 8 7 10 9 8 8 10 8 9 9 9 9 9 10 10 11 12 10 8 9 8 7 7 4 5 8 8 8 8 8 7 7 6 5 4 3 3 4
10 9 12 12 13 12 6 4 5 8 7 10 10 9 9 10 10 10 10 12 12 12 10 10 9 6 8 9 7 6 8 9 9 9 9 8 6 7 6 5 5 3 3
12 12 12 11 11 9 9 8 6 3 3 7 9 10 11 11 12 12 12 12 13 13 12 11 8 9 8 7 7 7 8 8 10 10 10 8 9 8 6 7 7 6 4
13 13 13 12 12 10 9 7 5 3 3 3 6 7 8 9 9 10 12 13 12 15 14 10 10 5 5 9 9 8 8 8 10 9 9 9 9 8 8 7 7 7 6
13 13 13 12 12 10 7 5 8 5 6 6 6 6 6 6 8 10 11 13 13 15 16 13 17 15 12 8 10 9 9 10 9 9 9 7 11 15 11 6 7 7 6
12 13 13 13 12 12 10 7 5 5 7 8 6 6 7 7 7 8 8 11 13 13 13 11 13 11 10 13 9 9 8 10 11 10 10 9 10 11 12 12 18 10 5
12 12 13 13 13 13 13 12 9 6 5 8 5 5 5 7 7 8 9 9 10 14 13 14 13 13 12 16 12 10 10 10 10 10 10 9 7 8 7 9 10 10 8
11 11 10 11 12 13 13 13 11 9 7 7 7 4 4 5 6 8 9 9 8 11 11 12 12 12 10 16 15 9 11 9 11 11 11 11 12 11 10 9 9 8 6
9 8 9 9 10 11 11 10 11 11 11 11 7 5 3 4 6 7 8 8 8 8 10 9 12 11 11 16 16 14 12 12 11 11 12 11 12 14 11 11 10 9 5
7 7 7 7 9 10 10 9 9 10 10 8 4 4 6 3 6 6 7 7 8 9 7 8 9 12 13 15 16 13 8 10 10 10 10 2 11 15 9 9 10 10 8
4 6 5 6 7 8 8 8 9 10 10 9 7 2 2 5 6 5 5 7 8 7 10 11 13 14 14 16 20 21 10 10 9 9 9 9 13 15 12 6 7 7 11
2 2 5 5 5 5 6 7 8 9 9 10 9 7 1 3 7 7 5 4 5 6 7 10 8 11 11 16 18 19 15 9 11 10 8 7 15 13 12 6 6 9 6
7 6 6 4 6 6 6 6 6 7 7 9 9 10 6 3 5 8 8 5 5 5 5 6 9 6 7 10 22 21 18 7 9 8 7 16 16 13 9 7 10 6 5
8 8 9 8 8 6 7 7 6 6 6 7 8 7 9 9 1 6 7 7 6 7 7 8 8 7 7 8 8 11 12 8 10 8 10 11 10 9 7 8 6 8 8
9 10 10 10 10 9 8 8 9 7 7 7 7 7 5 7 4 4 5 8 9 9 7 7 8 9 9 11 13 13 14 14 11 9 9 9 9 8 8 8 9 8 8
11 11 12 12 12 11 11 10 9 9 9 8 7 5 4 3 4 6 5 3 3 13 15 12 9 7 8 11 18 19 14 16 14 11 10 10 10 10 9 10 10 10 10
Wind_Direction
183 178 187 192 187 181 176 181 179 179 183 177 182 181 179 179 174 185 154 175 153 168 183 158 170 210 190 172 155 160 155 140 130 128 119 106 117 121 117 102 102 102 78
183 179 183 189 190 183 179 182 180 183 190 186 188 187 187 175 187 179 164 187 165 172 178 173 182 197 166 162 173 164 165 154 169 159 146 151 151 138 105 110 109 73 113
196 191 180 188 185 187 177 186 178 186 194 191 190 183 180 165 188 178 181 187 181 175 185 181 182 177 165 172 178 181 181 171 190 242 222 150 193 146 152 170 115 151 109
187 191 184 186 184 189 176 189 183 186 196 197 189 186 184 187 192 183 184 171 185 177 181 181 178 179 196 179 189 187 186 190 195 207 221 316 109 185 159 156 155 150 158
181 188 190 189 187 184 177 191 183 185 191 201 194 183 192 193 182 184 172 173 177 177 182 180 183 186 202 183 193 182 203 195 199 197 201 209 200 236 153 161 168 188 165
187 189 187 190 191 188 185 196 192 183 189 199 191 188 195 210 178 177 174 182 172 177 182 181 185 187 198 183 192 192 199 211 215 184 187 201 204 190 216 175 155 181 168
200 190 177 181 188 184 185 190 190 194 187 190 175 198 210 223 175 176 185 182 175 175 170 179 180 185 184 177 193 191 195 205 199 207 187 223 222 307 224 199 159 171 145
195 155 148 184 183 192 178 181 175 202 199 194 183 193 220 207 194 187 188 182 176 168 165 185 187 177 171 169 184 190 193 190 197 193 228 201 208 220 235 216 161 163 169
11 52 173 182 178 195 189 174 180 190 198 195 189 185 188 167 148 144 148 140 160 175 168 172 155 184 163 165 180 181 185 176 175 180 190 209 180 195 201 219 186 179 167
79 105 174 209 202 195 171 153 172 195 190 174 182 176 158 144 132 134 143 144 154 166 162 151 156 169 157 163 187 158 168 171 169 170 171 167 158 147 145 176 198 256 231
83 62 46 14 50 67 151 163 156 174 182 157 154 156 144 141 135 146 160 176 164 171 160 153 150 158 169 157 211 166 161 170 169 154 159 157 155 143 152 155 171 198 240
90 75 89 63 50 41 45 107 145 180 161 162 141 165 152 147 153 164 182 167 161 162 159 154 160 175 163 160 185 176 161 168 161 164 153 156 147 143 144 141 132 96 96
92 83 75 74 71 68 49 42 40 58 135 139 156 174 166 170 174 171 173 170 161 162 161 151 160 171 174 166 170 185 164 173 166 158 157 158 154 154 148 140 139 138 117
83 82 78 72 61 55 75 86 78 102 115 167 164 178 173 177 173 174 171 168 165 163 160 154 131 147 191 188 189 171 176 175 167 159 158 162 166 154 160 149 140 131 136
84 78 75 71 70 65 72 76 135 125 148 160 176 184 183 166 177 183 167 170 164 170 163 168 157 164 180 193 192 174 183 175 159 162 162 149 81 65 50 154 154 154 152
73 67 63 58 53 46 32 48 92 129 153 162 173 161 161 156 170 170 168 172 164 167 166 172 168 161 192 168 183 175 179 178 169 168 158 128 115 81 68 73 61 41 175
66 59 52 47 36 32 23 35 45 94 119 129 124 137 153 161 158 159 167 167 175 166 172 172 164 188 188 155 158 178 172 177 178 178 158 166 142 147 128 80 89 62 45
60 53 46 44 35 23 29 30 48 70 63 72 118 125 149 158 150 157 163 167 173 177 172 174 185 178 182 158 159 181 165 179 182 177 172 183 158 162 157 160 143 140 135
57 43 40 39 41 25 17 37 49 38 39 23 67 131 114 163 172 173 175 178 170 175 174 187 182 188 150 162 165 178 174 183 187 182 182 185 177 152 179 173 163 167 151
50 34 24 34 36 30 14 34 41 40 39 27 32 15 145 190 197 189 180 182 184 184 192 190 194 187 156 169 169 194 178 181 184 187 185 113 188 156 189 188 173 182 164
33 353 20 31 25 21 12 16 32 25 15 10 356 27 142 179 177 186 180 185 189 188 194 195 195 196 167 177 178 203 193 186 189 186 192 188 147 166 188 241 191 199 143
277 320 329 6 3 358 11 3 24 5 2 351 356 340 266 182 156 166 177 167 189 198 196 208 204 195 180 163 188 205 237 183 188 195 198 165 158 169 182 189 111 115 133
297 294 293 332 313 322 346 344 2 0 352 342 348 346 312 202 164 162 172 176 192 204 208 197 195 192 191 162 180 200 214 220 209 189 172 141 158 164 173 162 153 163 182
297 308 310 293 289 300 305 309 323 329 334 332 331 344 341 4 49 165 172 177 185 211 206 204 200 192 194 165 171 198 208 210 211 140 140 156 159 172 184 156 181 207 204
290 291 291 294 292 293 290 291 295 297 308 305 314 317 331 338 301 303 174 191 197 194 201 210 212 194 191 197 177 183 193 200 195 161 147 155 170 185 189 193 203 209 214
271 279 283 288 285 288 288 287 287 287 295 288 285 296 313 291 309 307 269 214 218 196 203 201 204 229 209 164 169 185 201 191 164 174 176 183 185 188 193 198 202 206 214